Wind_Speed
3 3 4 3 3 2 2 2 2 2 3 4 4 4 5 6 7 8 9 10 11 13 14 14 15 15 15 14 13 13 12 12 11 9 8 7 7 8 9 11 12 13 14
4 3 3 2 2 2 1 1 2 2 3 4 4 5 6 7 8 9 10 11 12 13 14 14 15 15 15 15 14 13 13 12 11 10 8 7 6 7 9 10 12 13 15
3 3 3 3 3 3 2 1 1 2 3 4 4 5 6 7 8 9 9 10 11 12 13 14 14 15 15 15 15 14 14 13 12 10 9 7 6 6 7 10 12 13 15
3 3 3 3 3 3 2 2 2 2 3 4 5 5 6 7 8 9 10 10 11 12 13 14 14 15 16 16 15 15 15 14 13 11 9 7 7 6 6 8 11 13 14
3 3 3 3 3 3 2 2 2 3 3 4 5 5 6 7 8 8 9 10 11 12 13 14 15 15 16 16 16 15 15 15 13 12 10 8 7 6 6 7 9 11 13
3 2 2 2 2 2 2 2 3 3 3 4 4 5 6 8 9 9 10 11 12 13 14 14 15 16 16 17 16 16 16 15 14 12 11 9 8 7 7 7 8 10 13
2 2 2 2 2 2 3 3 2 3 3 4 5 6 7 8 9 10 11 12 12 13 14 15 16 16 17 17 18 17 17 16 15 14 12 10 9 9 8 8 9 11 12
2 2 2 2 2 2 3 3 3 3 4 5 6 7 8 9 9 10 11 12 13 14 15 15 16 17 18 18 18 18 17 17 15 14 13 11 10 10 9 9 10 11 12
3 3 3 3 2 3 3 3 3 4 4 5 7 8 8 9 10 11 12 13 14 15 16 17 17 18 19 19 19 18 18 17 16 15 13 12 11 11 10 10 11 12 13
4 4 4 4 3 4 4 4 4 5 5 6 7 8 9 10 12 12 13 14 15 16 17 18 19 20 20 19 19 19 19 18 17 16 15 14 13 12 12 12 12 13 14
5 5 4 4 4 5 5 5 6 6 7 8 8 10 11 12 13 14 15 16 17 18 19 20 20 21 21 21 21 20 20 19 19 17 16 16 15 14 14 14 14 14 15
5 5 5 5 6 6 6 7 8 8 8 9 10 11 13 14 15 16 17 17 18 19 20 21 22 22 23 23 23 22 22 21 20 19 19 18 17 17 16 16 16 16 17
6 6 6 7 7 7 7 8 9 10 10 11 12 14 15 16 16 17 18 19 21 22 22 24 24 25 25 25 25 24 24 23 22 21 21 20 20 19 19 19 19 18 19
7 8 8 8 8 8 9 9 10 12 12 13 14 16 17 18 19 19 21 22 23 24 25 26 27 27 27 27 27 26 26 25 24 24 23 22 22 21 21 21 21 21 21
9 9 9 10 10 10 11 11 12 13 14 15 17 18 19 20 21 22 23 25 26 27 28 29 29 30 30 30 29 29 28 28 27 27 26 25 25 24 24 24 23 24 24
9 10 10 11 12 12 13 13 15 16 17 18 19 20 21 22 23 25 26 28 28 29 30 31 32 32 32 32 32 31 31 31 31 30 30 29 28 27 27 27 26 26 26
11 11 12 13 13 14 15 16 17 18 19 20 21 22 24 25 26 28 29 30 31 32 33 34 34 35 35 35 35 35 34 34 34 34 33 32 32 30 30 30 30 29 28
12 12 13 14 15 16 17 18 19 20 21 22 23 25 26 28 29 31 32 33 34 35 36 37 37 37 37 38 38 38 38 38 37 37 36 35 34 34 33 33 32 32 31
13 14 15 16 17 19 19 20 21 22 24 25 26 28 29 31 32 33 34 35 36 37 38 39 39 40 40 40 41 40 40 39 38 38 38 38 37 36 36 35 34 35 35
16 16 17 18 19 21 22 23 24 25 26 28 29 30 32 33 34 35 36 38 39 40 41 41 41 42 42 42 42 42 41 40 40 40 40 40 39 38 37 37 36 36 36
18 19 20 22 23 24 25 26 28 28 29 30 32 33 35 36 36 38 39 40 41 42 42 42 42 42 43 43 43 43 42 41 41 41 41 40 40 40 39 39 38 37 37
22 22 23 24 25 27 28 29 30 31 32 34 35 36 37 38 39 40 42 43 43 43 43 43 43 43 44 45 45 44 43 43 43 42 41 41 40 41 40 40 39 38 38
25 26 26 27 28 29 31 31 32 33 34 36 37 38 39 41 42 43 44 44 44 45 44 44 44 45 45 46 46 46 45 45 44 43 42 42 42 41 41 41 41 40 39
27 28 29 30 31 32 33 34 35 36 37 38 39 40 41 43 44 44 45 45 46 46 46 46 46 46 47 47 47 47 47 47 46 44 43 43 42 42 41 42 42 42 42
30 31 32 33 34 35 35 36 37 38 39 40 41 42 44 45 45 46 46 47 48 48 48 48 48 48 48 49 49 49 48 47 46 45 44 43 42 42 42 42 43 44 44
33 34 35 35 36 37 38 38 39 40 41 42 44 45 46 47 47 48 48 49 49 49 49 49 50 51 51 51 50 50 49 48 47 46 45 44 43 43 42 42 42 43 44
Wind_Direction
233 246 248 253 245 251 272 284 296 313 317 328 331 341 342 341 342 344 346 348 350 352 352 353 354 354 354 352 351 349 346 343 340 333 323 305 280 261 245 236 228 224 222
226 236 241 238 226 233 240 272 301 314 319 324 332 332 341 340 340 340 340 344 346 349 351 352 353 355 355 353 351 350 347 343 340 334 327 315 290 265 249 238 231 227 222
221 221 221 219 216 218 222 248 300 318 320 322 325 330 335 343 346 345 345 347 348 349 351 352 354 355 355 353 350 349 347 343 338 332 326 319 304 276 255 241 233 228 221
228 229 223 219 214 216 227 248 281 312 325 327 323 331 337 344 347 347 348 348 349 350 350 351 352 352 352 351 349 347 346 343 340 335 327 318 305 288 266 245 235 229 223
226 225 220 217 214 223 237 259 285 310 322 328 330 333 336 341 344 341 342 342 344 347 348 349 350 351 350 349 347 346 344 342 338 333 324 316 305 293 279 254 239 229 225
224 224 225 217 213 228 245 261 283 303 315 326 335 338 337 337 339 340 339 340 340 342 344 345 346 347 348 349 347 345 342 339 338 332 323 312 304 293 279 262 246 235 228
222 217 219 221 215 223 244 254 275 299 316 321 326 329 331 331 333 337 338 339 339 339 340 340 340 341 342 344 345 344 342 339 336 332 324 312 301 293 282 268 256 246 237
233 232 240 249 237 232 244 253 271 288 310 316 320 322 326 329 331 333 334 336 337 338 338 338 337 336 335 336 337 338 338 339 336 332 325 315 303 294 283 271 262 253 245
235 236 249 256 258 252 255 265 279 291 306 313 319 322 325 328 326 327 329 330 331 332 332 332 333 332 331 330 331 331 331 332 332 330 325 316 305 296 286 276 266 258 248
249 252 255 254 263 266 270 278 287 298 307 314 316 320 321 324 324 323 323 324 326 327 327 327 327 327 326 326 325 325 324 324 324 322 319 313 303 294 286 278 271 263 253
255 260 264 265 267 271 279 285 289 297 303 307 312 315 315 319 321 322 323 323 323 323 323 323 323 322 322 322 321 320 319 318 317 314 312 308 301 293 285 280 273 266 258
259 266 273 276 272 273 280 286 289 295 298 302 307 310 312 315 316 318 320 321 322 322 321 320 320 319 319 319 318 317 315 314 312 309 306 302 299 293 285 279 274 269 263
265 271 275 278 276 274 281 284 289 294 297 302 306 308 310 312 313 315 317 317 319 319 319 318 316 316 316 314 313 312 311 309 307 305 302 299 297 292 286 280 275 270 266
270 275 274 275 276 275 280 285 291 295 298 302 305 307 308 309 310 313 315 315 316 316 316 316 315 314 313 311 309 308 307 305 303 301 298 296 293 290 286 281 276 271 266
276 278 274 273 276 278 281 285 291 295 298 300 303 306 308 308 310 311 312 312 312 313 313 313 312 311 310 308 306 305 304 301 298 297 295 292 290 287 283 279 276 272 267
282 281 277 274 277 279 283 288 291 294 297 300 303 304 306 307 308 310 311 311 311 311 312 312 311 310 309 307 305 303 301 299 296 294 291 288 286 283 281 277 274 271 267
285 285 281 278 279 281 284 289 292 293 296 298 301 303 305 306 307 309 310 310 311 311 311 311 310 309 308 306 304 302 299 297 295 293 289 286 283 279 277 275 272 270 267
285 285 285 283 282 283 285 289 293 295 296 298 301 303 305 306 307 308 309 310 311 310 310 309 309 308 307 305 303 301 298 296 294 292 289 285 282 278 274 271 269 266 265
287 286 287 287 286 285 287 289 292 294 297 299 301 303 304 306 307 308 308 309 309 309 309 308 307 306 305 304 303 301 298 296 294 292 289 286 283 279 275 271 269 266 263
288 287 289 290 290 291 291 291 292 294 297 299 300 302 303 304 305 306 307 308 308 308 307 307 306 306 305 304 303 301 298 296 294 292 290 286 282 278 274 271 268 266 263
290 290 291 292 293 293 293 293 294 295 297 299 301 302 303 304 305 306 306 307 307 307 306 306 306 306 305 305 304 301 298 296 295 293 290 286 281 276 273 271 268 266 262
290 291 291 292 294 294 294 295 295 296 297 299 301 302 303 304 305 306 306 307 307 306 306 306 305 306 305 305 303 301 298 296 295 293 289 286 281 276 272 269 267 264 263
291 291 291 292 294 296 296 296 296 297 298 299 300 302 303 304 305 306 306 306 306 306 306 305 305 305 305 304 303 302 298 295 295 293 288 285 281 276 272 268 266 263 262
292 292 292 293 294 296 297 296 296 297 299 300 300 302 303 304 305 306 306 306 306 305 305 304 304 305 305 304 304 302 298 295 293 292 288 284 281 275 272 270 266 263 262
291 292 293 292 293 294 296 296 296 297 298 299 300 302 303 304 304 305 305 305 305 305 305 304 304 305 305 306 304 302 299 295 291 290 288 284 280 275 271 270 267 264 262
289 291 293 293 293 294 295 296 296 297 297 299 300 301 302 303 303 303 304 304 304 304 304 305 305 305 305 306 305 303 300 296 292 289 288 284 279 275 271 268 266 264 262
Height
5868 5868 5868 5868 5867 5867 5867 5867 5866 5865 5864 5863 5862 5861 5860 5859 5857 5856 5854 5852 5850 5847 5845 5842 5839 5836 5833 5831 5828 5826 5823 5821 5819 5818 5816 5815 5815 5815 5816 5817 5819 5821 5823
5866 5866 5866 5866 5866 5866 5866 5866 5865 5864 5863 5862 5861 5860 5859 5858 5856 5854 5853 5851 5849 5846 5844 5841 5838 5836 5833 5830 5827 5825 5823 5820 5818 5817 5815 5814 5814 5813 5814 5815 5817 5818 5821
5865 5865 5865 5865 5865 5865 5865 5864 5864 5863 5862 5861 5860 5859 5858 5857 5855 5853 5852 5850 5848 5845 5843 5840 5838 5835 5832 5829 5827 5824 5822 5819 5817 5815 5814 5812 5812 5812 5812 5813 5814 5816 5818
5863 5863 5863 5863 5863 5863 5863 5863 5862 5862 5861 5860 5859 5859 5857 5856 5854 5852 5851 5849 5847 5844 5842 5839 5837 5834 5832 5829 5826 5823 5821 5818 5816 5814 5812 5812 5811 5810 5810 5811 5812 5813 5815
5861 5861 5861 5861 5861 5861 5861 5861 5861 5860 5860 5859 5858 5857 5856 5854 5853 5851 5849 5848 5845 5843 5841 5838 5836 5833 5831 5828 5825 5823 5820 5817 5815 5813 5811 5810 5809 5809 5809 5809 5810 5811 5813
5860 5860 5860 5859 5859 5859 5859 5859 5859 5859 5858 5858 5857 5856 5855 5853 5851 5850 5848 5846 5844 5842 5840 5837 5835 5832 5829 5827 5824 5821 5819 5816 5814 5811 5810 5808 5808 5807 5807 5807 5808 5809 5810
5858 5858 5858 5858 5858 5858 5858 5858 5858 5857 5857 5856 5855 5854 5853 5852 5850 5848 5847 5845 5843 5840 5838 5836 5833 5831 5828 5825 5823 5820 5817 5814 5812 5810 5808 5806 5806 5805 5805 5805 5806 5806 5808
5857 5857 5857 5856 5856 5856 5856 5856 5856 5856 5855 5855 5854 5853 5851 5850 5849 5847 5845 5843 5841 5839 5836 5834 5831 5829 5826 5823 5821 5818 5815 5813 5810 5808 5806 5805 5804 5803 5803 5803 5803 5804 5805
5855 5856 5855 5855 5855 5855 5855 5855 5854 5854 5853 5853 5852 5851 5850 5848 5847 5845 5843 5841 5839 5836 5834 5832 5829 5827 5824 5821 5818 5816 5813 5810 5808 5806 5804 5802 5801 5800 5800 5800 5801 5801 5802
5854 5854 5854 5853 5853 5853 5853 5853 5853 5852 5852 5851 5850 5849 5848 5846 5845 5843 5841 5839 5836 5834 5831 5829 5826 5824 5821 5818 5816 5813 5810 5808 5805 5803 5802 5800 5799 5798 5797 5797 5797 5797 5798
5852 5852 5851 5851 5851 5851 5851 5851 5851 5850 5850 5849 5848 5847 5845 5844 5842 5840 5838 5836 5833 5831 5828 5826 5823 5820 5817 5814 5812 5809 5807 5804 5802 5800 5798 5797 5795 5794 5794 5793 5793 5793 5794
5850 5850 5849 5849 5849 5849 5849 5849 5848 5848 5847 5846 5845 5844 5842 5841 5839 5837 5835 5832 5830 5827 5825 5822 5819 5816 5813 5810 5807 5805 5802 5800 5798 5796 5794 5792 5791 5790 5789 5789 5789 5789 5789
5848 5847 5847 5847 5846 5847 5847 5846 5846 5845 5845 5843 5842 5841 5839 5837 5835 5833 5831 5828 5826 5823 5820 5817 5814 5811 5808 5805 5802 5799 5797 5795 5792 5791 5789 5787 5786 5785 5784 5783 5783 5783 5783
5845 5844 5844 5844 5844 5844 5844 5843 5843 5842 5841 5840 5839 5837 5835 5833 5831 5829 5826 5824 5821 5818 5815 5811 5808 5805 5802 5799 5796 5793 5791 5788 5786 5784 5783 5781 5780 5779 5778 5777 5777 5776 5776
5842 5841 5841 5841 5841 5841 5841 5840 5840 5839 5837 5836 5835 5833 5831 5829 5826 5824 5821 5818 5815 5812 5808 5805 5801 5797 5794 5791 5788 5786 5783 5781 5779 5777 5775 5774 5772 5771 5770 5770 5769 5769 5769
5839 5838 5838 5838 5838 5838 5837 5837 5836 5835 5834 5832 5830 5828 5826 5823 5821 5818 5815 5811 5808 5805 5801 5797 5793 5790 5786 5782 5779 5777 5775 5772 5770 5768 5767 5765 5763 5762 5761 5761 5760 5760 5760
5836 5835 5835 5834 5834 5834 5833 5833 5832 5830 5829 5827 5825 5823 5820 5817 5815 5811 5808 5804 5801 5797 5793 5789 5784 5781 5777 5773 5769 5766 5764 5762 5759 5757 5756 5754 5753 5752 5751 5751 5750 5750 5751
5833 5832 5831 5831 5830 5830 5829 5828 5827 5825 5823 5821 5819 5816 5814 5811 5807 5804 5800 5796 5792 5788 5784 5779 5775 5771 5767 5762 5758 5755 5752 5749 5747 5745 5743 5742 5741 5740 5739 5739 5739 5739 5740
5830 5829 5828 5827 5826 5825 5824 5823 5821 5819 5817 5815 5812 5809 5806 5803 5800 5796 5792 5788 5784 5779 5774 5769 5764 5760 5755 5751 5746 5742 5739 5736 5734 5731 5729 5728 5727 5726 5725 5725 5726 5727 5728
5826 5825 5824 5823 5821 5820 5818 5817 5815 5813 5810 5808 5805 5802 5798 5795 5791 5787 5783 5778 5774 5769 5764 5759 5753 5748 5743 5738 5733 5729 5726 5723 5721 5718 5716 5713 5712 5711 5710 5710 5711 5713 5714
5821 5820 5819 5817 5816 5814 5812 5810 5808 5805 5803 5800 5797 5793 5789 5786 5782 5778 5773 5768 5763 5758 5753 5748 5743 5737 5731 5726 5721 5716 5712 5709 5706 5704 5702 5699 5697 5696 5696 5695 5697 5698 5699
5816 5814 5813 5811 5809 5807 5805 5802 5800 5797 5794 5791 5788 5784 5780 5776 5772 5767 5762 5757 5752 5746 5741 5736 5731 5725 5719 5714 5709 5704 5699 5695 5692 5689 5687 5684 5682 5682 5681 5681 5682 5683 5685
5809 5807 5805 5803 5801 5799 5797 5794 5791 5788 5785 5782 5778 5774 5770 5766 5761 5756 5751 5745 5740 5734 5729 5724 5719 5714 5708 5702 5696 5691 5686 5681 5677 5674 5672 5670 5668 5667 5668 5668 5668 5669 5670
5801 5799 5797 5795 5793 5790 5788 5785 5782 5779 5776 5772 5768 5764 5760 5755 5750 5745 5739 5733 5728 5722 5717 5712 5707 5701 5696 5690 5684 5678 5673 5668 5664 5660 5658 5656 5654 5653 5653 5654 5654 5655 5656
5793 5791 5789 5786 5784 5781 5778 5775 5772 5769 5765 5762 5757 5753 5748 5744 5738 5733 5727 5721 5716 5709 5704 5699 5693 5688 5683 5677 5670 5664 5658 5653 5650 5646 5644 5642 5640 5639 5639 5639 5639 5640 5641
5784 5782 5779 5777 5774 5771 5768 5765 5761 5758 5754 5751 5746 5742 5737 5731 5726 5721 5716 5709 5703 5697 5691 5685 5679 5674 5668 5662 5656 5650 5644 5639 5635 5631 5629 5627 5625 5624 5624 5624 5624 5624 5625